Time,TemperatureF,DewpointF,PressureIn,WindDirection,WindDirectionDegrees,WindSpeedMPH,WindSpeedGustMPH,Humidity,HourlyPrecipIn,Conditions,Clouds,dailyrainin,SoftwareType,DateUTC
2013-12-13 00:02:00,-999.0,-99.9,-100.00,West,272,13.0,21.0,-999,-99.99,,,-99.99,,2013-12-13 05:02:00,
2013-12-13 00:23:00,-999.0,-99.9,-100.00,West,265,12.0,19.0,-999,-99.99,,,-99.99,,2013-12-13 05:23:00,
2013-12-13 00:33:00,-999.0,-99.9,-100.00,West,263,12.0,20.0,-999,-99.99,,,-99.99,,2013-12-13 05:33:00,
2013-12-13 00:43:00,-999.0,-99.9,-100.00,West,273,13.0,21.0,-999,-99.99,,,-99.99,,2013-12-13 05:43:00,
2013-12-13 01:02:00,-999.0,-99.9,-100.00,West,264,10.0,20.0,-999,-99.99,,,-99.99,,2013-12-13 06:02:00,
2013-12-13 01:12:00,-999.0,-99.9,-100.00,West,272,11.0,17.0,-999,-99.99,,,-99.99,,2013-12-13 06:12:00,
2013-12-13 01:22:00,-999.0,-99.9,-100.00,West,265,10.0,16.0,-999,-99.99,,,-99.99,,2013-12-13 06:22:00,
2013-12-13 01:43:00,-999.0,-99.9,-100.00,West,265,13.0,18.0,-999,-99.99,,,-99.99,,2013-12-13 06:43:00,
2013-12-13 01:52:00,-999.0,-99.9,-100.00,West,264,12.0,17.0,-999,-99.99,,,-99.99,,2013-12-13 06:52:00,
2013-12-13 02:12:00,-999.0,-99.9,-100.00,West,275,11.0,18.0,-999,-99.99,,,-99.99,,2013-12-13 07:12:00,
2013-12-13 02:22:00,-999.0,-99.9,-100.00,West,279,7.0,14.0,-999,-99.99,,,-99.99,,2013-12-13 07:22:00,
2013-12-13 02:32:00,-999.0,-99.9,-100.00,WNW,289,6.0,13.0,-999,-99.99,,,-99.99,,2013-12-13 07:32:00,
2013-12-13 02:52:00,-999.0,-99.9,-100.00,WNW,293,10.0,16.0,-999,-99.99,,,-99.99,,2013-12-13 07:52:00,
2013-12-13 03:02:00,-999.0,-99.9,-100.00,WNW,298,9.0,13.0,-999,-99.99,,,-99.99,,2013-12-13 08:02:00,
2013-12-13 03:12:00,-999.0,-99.9,-100.00,NW,313,7.0,13.0,-999,-99.99,,,-99.99,,2013-12-13 08:12:00,
2013-12-13 03:22:00,-999.0,-99.9,-100.00,NNW,330,10.0,15.0,-999,-99.99,,,-99.99,,2013-12-13 08:22:00,
2013-12-13 03:32:00,-999.0,-99.9,-100.00,NNE,14,23.0,29.0,-999,-99.99,,,-99.99,,2013-12-13 08:32:00,
2013-12-13 03:53:00,-999.0,-99.9,-100.00,NNE,14,22.0,26.0,-999,-99.99,,,-99.99,,2013-12-13 08:53:00,
2013-12-13 04:02:00,-999.0,-99.9,-100.00,NNE,12,22.0,24.0,-999,-99.99,,,-99.99,,2013-12-13 09:02:00,
2013-12-13 04:12:00,-999.0,-99.9,-100.00,North,1,22.0,26.0,-999,-99.99,,,-99.99,,2013-12-13 09:12:00,
2013-12-13 04:22:00,-999.0,-99.9,-100.00,North,356,17.0,22.0,-999,-99.99,,,-99.99,,2013-12-13 09:22:00,
2013-12-13 04:33:00,-999.0,-99.9,-100.00,North,1,15.0,21.0,-999,-99.99,,,-99.99,,2013-12-13 09:33:00,
2013-12-13 04:54:00,-999.0,-99.9,-100.00,North,354,17.0,20.0,-999,-99.99,,,-99.99,,2013-12-13 09:54:00,
2013-12-13 05:12:00,-999.0,-99.9,-100.00,North,350,18.0,25.0,-999,-99.99,,,-99.99,,2013-12-13 10:12:00,
2013-12-13 05:23:00,-999.0,-99.9,-100.00,North,2,19.0,21.0,-999,-99.99,,,-99.99,,2013-12-13 10:23:00,
2013-12-13 05:34:00,-999.0,-99.9,-100.00,NNE,30,18.0,22.0,-999,-99.99,,,-99.99,,2013-12-13 10:34:00,
2013-12-13 05:43:00,-999.0,-99.9,-100.00,NNE,18,20.0,24.0,-999,-99.99,,,-99.99,,2013-12-13 10:43:00,
2013-12-13 05:53:00,-999.0,-99.9,-100.00,North,8,20.0,23.0,-999,-99.99,,,-99.99,,2013-12-13 10:53:00,
2013-12-13 06:02:00,-999.0,-99.9,-100.00,NNE,20,21.0,24.0,-999,-99.99,,,-99.99,,2013-12-13 11:02:00,
2013-12-13 06:12:00,-999.0,-99.9,-100.00,North,8,18.0,22.0,-999,-99.99,,,-99.99,,2013-12-13 11:12:00,
2013-12-13 06:33:00,-999.0,-99.9,-100.00,North,11,20.0,23.0,-999,-99.99,,,-99.99,,2013-12-13 11:33:00,
2013-12-13 06:53:00,-999.0,-99.9,-100.00,North,359,19.0,23.0,-999,-99.99,,,-99.99,,2013-12-13 11:53:00,
2013-12-13 07:02:00,-999.0,-99.9,-100.00,North,7,20.0,24.0,-999,-99.99,,,-99.99,,2013-12-13 12:02:00,
2013-12-13 07:32:00,-999.0,-99.9,-100.00,North,2,17.0,21.0,-999,-99.99,,,-99.99,,2013-12-13 12:32:00,
2013-12-13 07:53:00,-999.0,-99.9,-100.00,NNE,20,19.0,21.0,-999,-99.99,,,-99.99,,2013-12-13 12:53:00,
2013-12-13 08:02:00,-999.0,-99.9,-100.00,NNE,15,18.0,21.0,-999,-99.99,,,-99.99,,2013-12-13 13:02:00,
2013-12-13 08:12:00,-999.0,-99.9,-100.00,NNE,20,18.0,23.0,-999,-99.99,,,-99.99,,2013-12-13 13:12:00,
2013-12-13 08:52:00,-999.0,-99.9,-100.00,NNE,29,18.0,23.0,-999,-99.99,,,-99.99,,2013-12-13 13:52:00,
2013-12-13 09:43:00,-999.0,-99.9,-100.00,NNE,24,14.0,18.0,-999,-99.99,,,-99.99,,2013-12-13 14:43:00,
2013-12-13 09:53:00,-999.0,-99.9,-100.00,NNE,17,14.0,18.0,-999,-99.99,,,-99.99,,2013-12-13 14:53:00,
2013-12-13 10:12:00,-999.0,-99.9,-100.00,NNE,15,15.0,18.0,-999,-99.99,,,-99.99,,2013-12-13 15:12:00,
2013-12-13 10:22:00,-999.0,-99.9,-100.00,NNE,20,14.0,19.0,-999,-99.99,,,-99.99,,2013-12-13 15:22:00,
2013-12-13 10:54:00,-999.0,-99.9,-100.00,NNE,26,14.0,17.0,-999,-99.99,,,-99.99,,2013-12-13 15:54:00,
2013-12-13 11:03:00,-999.0,-99.9,-100.00,NNE,22,14.0,18.0,-999,-99.99,,,-99.99,,2013-12-13 16:03:00,
2013-12-13 11:23:00,-999.0,-99.9,-100.00,NNE,28,13.0,18.0,-999,-99.99,,,-99.99,,2013-12-13 16:23:00,
2013-12-13 11:33:00,-999.0,-99.9,-100.00,NNE,27,13.0,17.0,-999,-99.99,,,-99.99,,2013-12-13 16:33:00,
2013-12-13 11:43:00,-999.0,-99.9,-100.00,NE,38,12.0,15.0,-999,-99.99,,,-99.99,,2013-12-13 16:43:00,
2013-12-13 12:02:00,-999.0,-99.9,-100.00,NNE,30,11.0,16.0,-999,-99.99,,,-99.99,,2013-12-13 17:02:00,
2013-12-13 12:12:00,-999.0,-99.9,-100.00,NNE,32,10.0,12.0,-999,-99.99,,,-99.99,,2013-12-13 17:12:00,
2013-12-13 12:23:00,-999.0,-99.9,-100.00,NNE,19,10.0,12.0,-999,-99.99,,,-99.99,,2013-12-13 17:23:00,
2013-12-13 13:12:00,-999.0,-99.9,-100.00,NNE,25,7.0,12.0,-999,-99.99,,,-99.99,,2013-12-13 18:12:00,
2013-12-13 13:22:00,-999.0,-99.9,-100.00,NNE,30,8.0,12.0,-999,-99.99,,,-99.99,,2013-12-13 18:22:00,
2013-12-13 13:33:00,-999.0,-99.9,-100.00,NE,36,9.0,13.0,-999,-99.99,,,-99.99,,2013-12-13 18:33:00,
2013-12-13 13:42:00,-999.0,-99.9,-100.00,NNW,345,6.0,9.0,-999,-99.99,,,-99.99,,2013-12-13 18:42:00,
2013-12-13 13:52:00,-999.0,-99.9,-100.00,NNE,14,6.0,10.0,-999,-99.99,,,-99.99,,2013-12-13 18:52:00,
2013-12-13 14:22:00,-999.0,-99.9,-100.00,North,4,5.0,10.0,-999,-99.99,,,-99.99,,2013-12-13 19:22:00,
2013-12-13 14:32:00,-999.0,-99.9,-100.00,NNW,338,6.0,10.0,-999,-99.99,,,-99.99,,2013-12-13 19:32:00,
2013-12-13 14:42:00,-999.0,-99.9,-100.00,NNW,334,7.0,10.0,-999,-99.99,,,-99.99,,2013-12-13 19:42:00,
2013-12-13 14:52:00,-999.0,-99.9,-100.00,NNW,340,6.0,9.0,-999,-99.99,,,-99.99,,2013-12-13 19:52:00,
2013-12-13 15:02:00,-999.0,-99.9,-100.00,NNW,343,4.0,9.0,-999,-99.99,,,-99.99,,2013-12-13 20:02:00,
2013-12-13 15:12:00,-999.0,-99.9,-100.00,North,359,5.0,8.0,-999,-99.99,,,-99.99,,2013-12-13 20:12:00,
2013-12-13 15:22:00,-999.0,-99.9,-100.00,WNW,299,4.0,7.0,-999,-99.99,,,-99.99,,2013-12-13 20:22:00,
2013-12-13 15:32:00,-999.0,-99.9,-100.00,NW,325,5.0,8.0,-999,-99.99,,,-99.99,,2013-12-13 20:32:00,
2013-12-13 15:42:00,-999.0,-99.9,-100.00,NNW,329,6.0,9.0,-999,-99.99,,,-99.99,,2013-12-13 20:42:00,
2013-12-13 15:53:00,-999.0,-99.9,-100.00,NW,323,7.0,10.0,-999,-99.99,,,-99.99,,2013-12-13 20:53:00,
2013-12-13 16:11:00,-999.0,-99.9,-100.00,NW,320,4.0,12.0,-999,-99.99,,,-99.99,,2013-12-13 21:11:00,
2013-12-13 16:22:00,-999.0,-99.9,-100.00,NW,324,9.0,12.0,-999,-99.99,,,-99.99,,2013-12-13 21:22:00,
2013-12-13 16:53:00,-999.0,-99.9,-100.00,NW,319,7.0,12.0,-999,-99.99,,,-99.99,,2013-12-13 21:53:00,
2013-12-13 17:13:00,-999.0,-99.9,-100.00,NW,324,6.0,12.0,-999,-99.99,,,-99.99,,2013-12-13 22:13:00,
2013-12-13 17:53:00,-999.0,-99.9,-100.00,NW,326,6.0,9.0,-999,-99.99,,,-99.99,,2013-12-13 22:53:00,
2013-12-13 18:03:00,-999.0,-99.9,-100.00,NW,324,6.0,9.0,-999,-99.99,,,-99.99,,2013-12-13 23:03:00,
2013-12-13 18:12:00,-999.0,-99.9,-100.00,NNW,335,8.0,10.0,-999,-99.99,,,-99.99,,2013-12-13 23:12:00,
2013-12-13 18:22:00,-999.0,-99.9,-100.00,North,5,11.0,13.0,-999,-99.99,,,-99.99,,2013-12-13 23:22:00,
2013-12-13 18:33:00,-999.0,-99.9,-100.00,North,1,12.0,14.0,-999,-99.99,,,-99.99,,2013-12-13 23:33:00,
2013-12-13 19:11:00,-999.0,-99.9,-100.00,NNE,26,10.0,13.0,-999,-99.99,,,-99.99,,2013-12-14 00:11:00,
2013-12-13 19:22:00,-999.0,-99.9,-100.00,North,349,9.0,11.0,-999,-99.99,,,-99.99,,2013-12-14 00:22:00,
2013-12-13 19:32:00,-999.0,-99.9,-100.00,North,357,10.0,12.0,-999,-99.99,,,-99.99,,2013-12-14 00:32:00,
2013-12-13 19:42:00,-999.0,-99.9,-100.00,North,355,9.0,12.0,-999,-99.99,,,-99.99,,2013-12-14 00:42:00,
2013-12-13 19:52:00,-999.0,-99.9,-100.00,North,10,9.0,11.0,-999,-99.99,,,-99.99,,2013-12-14 00:52:00,
2013-12-13 20:02:00,-999.0,-99.9,-100.00,NNE,28,10.0,13.0,-999,-99.99,,,-99.99,,2013-12-14 01:02:00,
2013-12-13 20:11:00,-999.0,-99.9,-100.00,North,1,8.0,11.0,-999,-99.99,,,-99.99,,2013-12-14 01:11:00,
2013-12-13 20:22:00,-999.0,-99.9,-100.00,North,6,10.0,13.0,-999,-99.99,,,-99.99,,2013-12-14 01:22:00,
2013-12-13 20:52:00,-999.0,-99.9,-100.00,NE,42,7.0,11.0,-999,-99.99,,,-99.99,,2013-12-14 01:52:00,
2013-12-13 21:02:00,-999.0,-99.9,-100.00,NW,321,2.0,9.0,-999,-99.99,,,-99.99,,2013-12-14 02:02:00,
2013-12-13 21:12:00,-999.0,-99.9,-100.00,NW,316,3.0,5.0,-999,-99.99,,,-99.99,,2013-12-14 02:12:00,
2013-12-13 21:22:00,-999.0,-99.9,-100.00,NW,325,6.0,9.0,-999,-99.99,,,-99.99,,2013-12-14 02:22:00,
2013-12-13 21:42:00,-999.0,-99.9,-100.00,North,2,11.0,13.0,-999,-99.99,,,-99.99,,2013-12-14 02:42:00,
2013-12-13 21:52:00,-999.0,-99.9,-100.00,North,8,11.0,14.0,-999,-99.99,,,-99.99,,2013-12-14 02:52:00,
2013-12-13 22:12:00,-999.0,-99.9,-100.00,NNE,16,12.0,13.0,-999,-99.99,,,-99.99,,2013-12-14 03:12:00,
2013-12-13 22:22:00,-999.0,-99.9,-100.00,North,11,12.0,14.0,-999,-99.99,,,-99.99,,2013-12-14 03:22:00,
2013-12-13 22:54:00,-999.0,-99.9,-100.00,NE,35,11.0,13.0,-999,-99.99,,,-99.99,,2013-12-14 03:54:00,
2013-12-13 23:03:00,-999.0,-99.9,-100.00,NNE,28,14.0,17.0,-999,-99.99,,,-99.99,,2013-12-14 04:03:00,
2013-12-13 23:13:00,5.0,-99.9,30.38,NNE,28,14.0,17.0,-999,-99.99,,,-99.99,,2013-12-14 04:13:00,
2013-12-13 23:23:00,-999.0,-99.9,-100.00,NE,35,14.0,18.0,-999,-99.99,,,-99.99,,2013-12-14 04:23:00,
2013-12-13 23:33:00,-999.0,-99.9,-100.00,NNE,30,14.0,17.0,-999,-99.99,,,-99.99,,2013-12-14 04:33:00,
2013-12-13 23:43:00,-999.0,-99.9,-100.00,NNE,33,13.0,17.0,-999,-99.99,,,-99.99,,2013-12-14 04:43:00,